Regional Weather Roundup
Issued by NWS Little Rock, AR

Home | Current Version | Previous Version | Text Only | Print | Product List | Glossary On
Versions: 1 2 3 4 5 6 7 8 9 10 11 12 13 14 15 16 17 18 19 20 21 22 23 24 25 26 27 28 29 30 31 32 33 34 35 36 37 38 39 40 41 42 43 44 45 46 47 48 49 50
000
ASUS44 KLZK 191105
RWRLZK

WEATHER ROUNDUP FOR ARKANSAS
NATIONAL WEATHER SERVICE LITTLE ROCK AR
600 AM CDT SUN APR 19 2015

NOTE: "FAIR" INDICATES FEW OR NO CLOUDS BELOW 12,000 FEET WITH NO
SIGNIFICANT WEATHER AND/OR OBSTRUCTIONS TO VISIBILITY.

ARZ001-003-010-029-191200-
NORTHWEST ARKANSAS

CITY           SKY/WX    TMP DP  RH WIND       PRES   REMARKS
FAYETTEVILLE   MOCLDY    55  53  93 W6        29.74F
FORT SMITH     CLOUDY    59  55  87 W10       29.74S
HARRISON       CLOUDY    58  57  97 NW8       29.72F
BENTONVILLE    MOCLDY    55  50  82 N9        29.72F
ROGERS         PTCLDY    54  52  93 NE12      29.71F
SILOAM SPGS    MOCLDY    54  46  76 CALM      29.75S
HIGHFILL       CLOUDY    55  51  86 N5        29.72F
SPRINGDALE     MOCLDY    57  52  82 N6        29.74
$$

ARZ004-005-016-191200-
NORTH CENTRAL ARKANSAS

CITY           SKY/WX    TMP DP  RH WIND       PRES   REMARKS
BATESVILLE     CLOUDY    61  61 100 W3        29.68F
FLIPPIN        MOCLDY    57 N/A N/A CALM      29.68F
MTN HOME       CLOUDY    59  59 100 CALM      29.68F
$$

ARZ040-041-191200-
WEST CENTRAL ARKANSAS

CITY           SKY/WX    TMP DP  RH WIND       PRES   REMARKS
MENA           CLOUDY    59  57  94 SW3       29.75F
MOUNT IDA      CLOUDY    60  56  86 VRB3      29.70F
$$

ARZ009-017-025-026-028-191200-
NORTHEAST ARKANSAS

CITY           SKY/WX    TMP DP  RH WIND       PRES   REMARKS
CORNING          N/A     64  64 100 W3        29.67S FOG
JONESBORO      CLOUDY    63  62  97 W5        29.66F
NEWPORT        CLOUDY    64  64 100 N7        29.69S
WALNUT RIDGE   CLOUDY    64  61  88 W5        29.67S
BLYTHEVILLE    CLOUDY    65  65 100 SE3       29.66F
$$

ARZ022-023-033-042-044-191200-
CENTRAL ARKANSAS

CITY           SKY/WX    TMP DP  RH WIND       PRES   REMARKS
LITTLE ROCK    CLOUDY    64  61  90 W5        29.69F
N LITTLE ROCK    N/A     62  62 100 W5        29.69F
JACKSONVILLE   CLOUDY    63  63  99 W2        29.68F
SEARCY         CLOUDY    63  62  97 CALM      29.69F
HOT SPRINGS    CLOUDY    62  60  93 W3        29.70F
RUSSELLVILLE   CLOUDY    64  62  93 CALM      29.69F
CLINTON        MOCLDY    61  61 100 CALM      29.70F
$$

ARZ036-191200-
EAST ARKANSAS

CITY           SKY/WX    TMP DP  RH WIND       PRES   REMARKS
WEST MEMPHIS   LGT RAIN  64  64 100 CALM      29.65F FOG
$$

ARZ050-053-066-070-073-191200-
SOUTHWEST ARKANSAS

CITY           SKY/WX    TMP DP  RH WIND       PRES   REMARKS
ARKADELPHIA    CLOUDY    63  63 100 NW3       29.71F
CAMDEN         CLOUDY    63  59  88 E5        29.70F
TEXARKANA      MOCLDY    58  56  93 N7        29.73F
EL DORADO      CLOUDY    61  58  90 NW6       29.70F
DE QUEEN       CLOUDY    60  57  89 VRB5      29.68F
$$

ARZ056-057-069-191200-
SOUTHEAST ARKANSAS

CITY           SKY/WX    TMP DP  RH WIND       PRES   REMARKS
PINE BLUFF     CLOUDY    64  62  93 W8        29.70R
STUTTGART      CLOUDY    64  61  88 W10       29.69R
MONTICELLO     CLOUDY    65  64  97 SW7       29.72R

$$




USA.gov is the U.S. government's official web portal to all federal, state and local government web resources and services.